Weather History for Chievres, Belgium

Change the Weather History Date:

Tuesday, January 8, 2013

  Actual Average Record
Temperature  
Mean Temperature 42 °F -  
Max Temperature 44 °F 41 °F 53 °F (2007)
Min Temperature 41 °F 35 °F 17 °F (2009)
Degree Days  
Heating Degree Days 22    
Moisture  
Dew Point 39 °F    
Average Humidity 88    
Maximum Humidity 93    
Minimum Humidity 80    
Precipitation  
Precipitation 0.00 in - - ()
Sea Level Pressure  
Sea Level Pressure 30.33 in    
Wind  
Wind Speed 8 mph ()    
Max Wind Speed 13 mph    
Max Gust Speed -    
Visibility 4.7 miles    
Events      
Averages and records for this station are not official NWS values.
T = Trace of Precipitation, MM = Missing Value Source: Averaged Metar Reports

Daily Weather History Graph

Daily Weather History Graph

Search for Another Location

Airport:

Trip Planner

Search our weather history database for the weather conditions in past years. The results will help you decide how hot, cold, wet, or windy it might be!

Date:

Astronomy

Jan. 08, 2013 Rise Set
Actual Time 8:43 AM CET 4:59 PM CET
Civil Twilight 8:05 AM CET 5:37 PM CET
Nautical Twilight 7:24 AM CET 6:19 PM CET
Astronomical Twilight 6:44 AM CET 6:58 PM CET
Moon 4:56 AM CET (1/8) 1:49 PM CET (1/8)
Length of Visible Light 9h 31m
Length of Day
8h 15m
Waning Crescent, 16% of the Moon is Illuminated
Jan 8
Waning Crescent
Jan 11
New
Jan 19
First Quarter
Jan 27
Full
Feb 3
Last Quarter

Hourly Weather History & Observations

Time (CET) Temp. Windchill Dew Point Humidity Pressure Visibility Wind Dir Wind Speed Gust Speed Precip Events Conditions
12:25 AM 42.8 °F 38.6 °F 39.2 °F 87% 30.33 in 3.7 mi SW 6.9 mph - N/A   Mostly Cloudy
1:00 AM 43 °F - 40 °F 83% 30.35 in 4 mi West 6.7 mph - -   Partly Cloudy
1:25 AM 42.8 °F 37.5 °F 39.2 °F 87% 30.33 in 3.7 mi West 9.2 mph - N/A   Mostly Cloudy
2:25 AM 42.8 °F 38.0 °F 39.2 °F 87% 30.33 in 4.3 mi WSW 8.1 mph - N/A   Mostly Cloudy
3:25 AM 41.0 °F 35.2 °F 39.2 °F 93% 30.33 in 3.7 mi SSW 9.2 mph - N/A   Mostly Cloudy
3:30 AM 41.0 °F 35.2 °F 39.2 °F 93% 30.33 in 3.7 mi SW 9.2 mph - N/A   Mostly Cloudy
4:00 AM 42 °F - 39 °F 86% 30.35 in 3 mi SSW 8.9 mph - -   Scattered Clouds
4:15 AM 41.0 °F 35.2 °F 39.2 °F 93% 30.33 in 3.1 mi SSW 9.2 mph - N/A   Mostly Cloudy
4:25 AM 41.0 °F 35.2 °F 39.2 °F 93% 30.33 in 3.1 mi SSW 9.2 mph - N/A   Mostly Cloudy
4:45 AM 41.0 °F 35.8 °F 39.2 °F 93% 30.33 in 3.1 mi SW 8.1 mph - N/A   Mostly Cloudy
4:51 AM 41.0 °F 35.8 °F 39.2 °F 93% 30.33 in 3.7 mi SW 8.1 mph - N/A   Mostly Cloudy
4:57 AM 41.0 °F 35.8 °F 39.2 °F 93% 30.33 in 3.7 mi SW 8.1 mph - N/A   Mostly Cloudy
5:25 AM 41.0 °F 36.4 °F 39.2 °F 93% 30.33 in 3.7 mi SW 6.9 mph - N/A   Mostly Cloudy
5:41 AM 41.0 °F 36.4 °F 39.2 °F 93% 30.33 in 3.7 mi SW 6.9 mph - N/A   Mostly Cloudy
6:25 AM 41.0 °F 35.8 °F 39.2 °F 93% 30.33 in 3.7 mi SSW 8.1 mph - N/A   Mostly Cloudy
7:15 AM 41.0 °F 35.2 °F 39.2 °F 93% 30.33 in 5.0 mi SSW 9.2 mph - N/A   Mostly Cloudy
7:25 AM 41.0 °F 35.2 °F 39.2 °F 93% 30.33 in 5.0 mi South 9.2 mph - N/A   Mostly Cloudy
7:31 AM 41.0 °F 35.2 °F 39.2 °F 93% 30.33 in 4.3 mi SSW 9.2 mph - N/A   Mostly Cloudy
8:25 AM 41.0 °F 35.2 °F 39.2 °F 93% 30.33 in 5.0 mi South 9.2 mph - N/A   Mostly Cloudy
8:49 AM 41.0 °F 35.2 °F 39.2 °F 93% 30.33 in 5.0 mi SSW 9.2 mph - N/A   Mostly Cloudy
9:25 AM 42.8 °F 37.5 °F 39.2 °F 87% 30.33 in 5.0 mi SSW 9.2 mph - N/A   Mostly Cloudy
10:00 AM 42 °F - 39 °F 83% 30.35 in 5 mi SSW 8.9 mph - -   Overcast
10:22 AM 42.8 °F 37.5 °F 39.2 °F 87% 30.33 in 6.2 mi SW 9.2 mph - N/A   Mostly Cloudy
10:25 AM 42.8 °F 37.5 °F 39.2 °F 87% 30.33 in 6.2 mi SW 9.2 mph - N/A   Mostly Cloudy
11:25 AM 42.8 °F 36.6 °F 39.2 °F 87% 30.33 in 6.2 mi SW 11.5 mph - N/A   Mostly Cloudy
11:43 AM 44.6 °F 39.7 °F 39.2 °F 81% 30.33 in 6.2 mi SW 9.2 mph - N/A   Mostly Cloudy
12:25 PM 44.6 °F 39.7 °F 39.2 °F 81% 30.33 in 6.2 mi SW 9.2 mph - N/A   Mostly Cloudy
1:25 PM 44.6 °F 39.2 °F 39.2 °F 81% 30.33 in 6.2 mi SW 10.4 mph - N/A   Mostly Cloudy
2:25 PM 44.6 °F 38.8 °F 39.2 °F 81% 30.33 in 6.2 mi SW 11.5 mph - N/A   Mostly Cloudy
3:25 PM 42.8 °F 36.2 °F 39.2 °F 87% 30.33 in 5.6 mi SSW 12.7 mph - N/A   Mostly Cloudy
4:00 PM 43 °F - 39 °F 80% 30.33 in 5 mi SSW 11.2 mph - -   Overcast
4:25 PM 42.8 °F 36.6 °F 39.2 °F 87% 30.30 in 4.3 mi SSW 11.5 mph - N/A   Mostly Cloudy
5:25 PM 42.8 °F 36.2 °F 39.2 °F 87% 30.30 in 4.3 mi South 12.7 mph - N/A   Overcast
6:25 PM 42.8 °F 37.0 °F 37.4 °F 81% 30.30 in 3.7 mi SSW 10.4 mph - N/A   Overcast
7:00 PM 42 °F - 38 °F 81% 30.33 in 4 mi South 11.2 mph - -   Overcast
7:25 PM 42.8 °F 37.5 °F 37.4 °F 81% 30.30 in 5.0 mi SSW 9.2 mph - N/A   Overcast
7:28 PM 41.0 °F 35.8 °F 37.4 °F 87% 30.33 in 5.0 mi SSW 8.1 mph - N/A   Overcast
7:34 PM 42.8 °F 38.6 °F 37.4 °F 81% 30.33 in 5.0 mi SSW 6.9 mph - N/A   Mostly Cloudy
8:25 PM 41.0 °F 35.2 °F 37.4 °F 87% 30.33 in 5.0 mi SSW 9.2 mph - N/A   Overcast
8:50 PM 41.0 °F 34.7 °F 37.4 °F 87% 30.30 in 5.0 mi South 10.4 mph - N/A   Overcast
9:05 PM 41.0 °F 35.8 °F 37.4 °F 87% 30.30 in 5.0 mi South 8.1 mph - N/A   Overcast
9:25 PM 41.0 °F 34.3 °F 37.4 °F 87% 30.30 in 5.6 mi SSW 11.5 mph - N/A   Overcast
10:00 PM 41 °F - 38 °F 85% 30.32 in 6 mi SSW 6.7 mph - -   Overcast
10:25 PM 41.0 °F 35.8 °F 37.4 °F 87% 30.30 in 5.6 mi SSW 8.1 mph - N/A   Overcast
11:25 PM 41.0 °F 35.2 °F 37.4 °F 87% 30.30 in 5.0 mi SSW 9.2 mph - N/A   Overcast